Location: Unspecified
(50.7693°N, 0.0000°E)
Time: 04:47:50
(UTC+00:00)

Transit 4A - Pass Details

Date: 03 July 2019
Orbit: 862 x 982 km, 66.8° (Epoch: 23 July)

Event Time Altitude Azimuth Distance (km) Brightness Sun altitude
Rises 07:10:48 0° 239° (WSW) 3,648 10.5 28.0°
Reaches altitude 10° 07:13:27 10° 246° (WSW) 2,715 9.9 28.4°
Maximum altitude 07:19:34 47° 319° (NW) 1,289 8.7 29.4°
Drops below altitude 10° 07:25:46 10° 32° (NNE) 2,746 10.9 30.3°
Sets 07:28:28 0° 39° (NE) 3,692 11.5 30.8°
